Flag for South Africa Weather past 2 weeks in Stellenbosch, South Africa

Now
84 °F

Passing clouds.


Feels Like: 84 °F
Forecast: 62 / 89 °F
Wind: 16 mph from Southwest

Location: Cape Town International Airport

Current Time: Dec 29, 2014 at 2:26:59 PM

Latest Report: Dec 29, 2014 at 2:00 PM


Visibility: N/A

Pressure: 29.98 "Hg

Humidity: 45%

Dew point: 61 °F

Location of StellenboschLocation

Historic Weather in Stellenbosch — Graph

°F

Stellenbosch temperature yesterday

Maximum temperature yesterday: 82 °F (at 12:00 PM)
Minimum temperature yesterday: 59 °F (at 6:00 AM)
Average temperature yesterday: 72 °F

Past Weeks' High & Low Weather Summary

 TemperatureHumidityPressure
High82 °F (Dec 28, 12:00 PM)88% (Dec 22, 1:00 AM)30.12 "Hg (Dec 22, 1:00 AM)
Low59 °F (Dec 24, 4:00 AM)40% (Dec 28, 12:00 PM)29.83 "Hg (Dec 27, 2:00 AM)
Average69 °F64%29.98 "Hg
* Reported Dec 14 1:00 PM — Dec 29 1:00 PM, Stellenbosch, Weather by CustomWeather, © 2014

Note: Actual official high and low records may vary slightly from our data, if they occured in-between our weather recording intervals... More about our weather records

Advertising

Stellenbosch weather history for previous 24 hours

 ConditionsComfort  
Time TempWeatherWind HumidityBarometerVisibility
1:00 PM
Dec 29
82 °FPassing clouds.12 mph45%29.98 "HgN/A
12:00 PM82 °FPassing clouds.13 mph45%30.01 "HgN/A
11:00 AM81 °FSunny.16 mph48%30.01 "Hg10 mi
10:00 AM81 °FPassing clouds.10 mph45%30.01 "HgN/A
9:00 AM77 °FPassing clouds.7 mph54%30.01 "HgN/A
8:00 AM72 °FPassing clouds.7 mph61%29.98 "HgN/A
7:00 AM70 °FPassing clouds.8 mph64%29.98 "HgN/A
6:00 AM66 °FPassing clouds.8 mph78%29.98 "HgN/A
5:00 AM66 °FPassing clouds.7 mph78%29.95 "HgN/A
4:00 AM66 °FPassing clouds.9 mph78%29.95 "HgN/A
3:00 AM66 °FPassing clouds.9 mph78%29.95 "HgN/A
2:00 AM66 °FPassing clouds.10 mph73%29.95 "HgN/A
1:00 AM66 °FPassing clouds.12 mph73%29.98 "HgN/A
12:00 AM66 °FPassing clouds.9 mph73%29.98 "HgN/A
11:00 PM
Dec 28
68 °FPassing clouds.12 mph69%29.98 "HgN/A
10:00 PM68 °FPassing clouds.17 mph69%29.98 "HgN/A
9:00 PM70 °FPassing clouds.21 mph60%29.98 "HgN/A
8:00 PM73 °FPassing clouds.22 mph61%29.95 "HgN/A
7:00 PM75 °FPassing clouds.20 mph57%29.95 "HgN/A
6:00 PM77 °FPassing clouds.21 mph51%29.95 "HgN/A
5:00 PM81 °FPassing clouds.20 mph48%29.95 "HgN/A
4:00 PM81 °FPassing clouds.20 mph45%29.95 "HgN/A
3:00 PM82 °FPassing clouds.20 mph42%29.95 "HgN/A
2:00 PM81 °FPassing clouds.20 mph45%29.95 "HgN/A
Weather by CustomWeather, © 2014

See weather overviewHow to use our weather pages